Tracking 28081 objects as of 27-Sep-2023
HD Live streaming from Space Station
objects crossing your sky now

FENGYUN 1C DEB

Track FENGYUN 1C DEB now!
10-day predictions


NORAD ID: 31294
Int'l Code: 1999-025BPC
Perigee: 781.6 km
Apogee: 932.1 km
Inclination: 98.6 °
Period: 101.9 minutes
Semi major axis: 7227 km
RCS: 0.012 m2 (small)
Launch date: May 10, 1999
Source: People's Republic of China (PRC)
Launch site: Taiyaun Space Center, China (TSC)

Note: This is SATELLITE DEBRIS
Your satellite tracking list
Your tracking list is empty




NASA's NSSDC Master Catalog

Two Line Element Set (TLE):
1 31294U 99025BPC 23269.27665189  .00001112  00000-0  58920-3 0  9992
2 31294  98.5565 289.3134 0104085 138.5185 222.3947 14.12819303854275
Source of the keplerian elements: AFSPC